Wind_Speed
11 6 8 4 3 2 4 6 5 8 7 19 14 15 15 10 6 7 24 28 27 27 24 22 20 19 18 17 16 16 15 14 13 12 11 11 12 12 12 12 12 12 12 11 10 11 12 12 12
6 6 3 2 2 2 3 12 11 8 7 20 19 18 21 16 16 17 19 31 27 23 24 22 20 19 18 17 16 15 15 14 13 12 11 12 11 11 11 12 12 12 12 12 12 13 14 13 13
5 1 2 3 2 5 5 11 9 3 5 10 7 14 8 7 10 9 32 33 28 25 23 21 19 19 17 16 16 16 15 14 13 11 11 11 10 10 11 11 11 12 13 13 13 13 13 12 12
2 4 4 1 8 7 12 9 8 6 8 18 15 9 12 20 11 26 27 26 23 26 24 22 20 18 18 17 16 14 13 12 11 11 11 10 10 10 10 10 10 11 11 11 11 11 11 11 12
2 2 1 2 6 3 9 9 8 7 5 20 21 12 11 22 27 28 31 27 28 25 23 21 19 17 16 15 14 13 12 12 12 12 10 10 9 9 9 9 9 10 10 11 11 12 11 11 12
3 3 3 4 5 5 5 6 8 10 5 16 19 15 7 24 23 26 28 26 24 24 22 20 18 16 15 14 13 13 13 13 12 11 10 9 9 8 8 10 11 10 10 11 11 11 11 11 11
4 2 4 4 8 6 6 8 6 15 6 9 14 11 7 17 22 25 28 22 20 21 20 18 17 15 14 13 13 13 12 13 12 11 9 11 9 10 11 10 11 10 9 12 11 14 15 13 11
4 3 6 3 1 1 4 6 9 9 5 11 12 7 8 15 24 27 24 23 21 20 18 17 15 15 15 14 13 13 14 14 14 12 10 9 7 7 6 8 8 9 11 11 11 14 15 13 12
5 1 6 13 12 4 4 6 5 6 8 9 5 18 18 28 26 24 25 22 25 22 15 17 15 14 16 15 14 16 15 12 11 10 6 5 5 3 6 6 6 8 10 8 11 13 10 9 10
5 4 6 3 9 7 6 6 5 6 8 9 14 20 25 27 24 23 19 22 21 20 21 21 16 13 13 12 11 12 11 10 9 7 7 7 4 2 4 5 6 9 9 6 12 12 12 11 14
6 6 5 7 11 11 7 7 5 8 6 12 19 15 16 23 20 20 20 24 26 23 25 19 16 13 10 6 9 10 12 9 8 7 5 4 2 6 4 5 7 9 9 9 12 11 13 13 15
3 8 8 5 8 7 8 7 3 3 9 12 21 23 17 11 13 20 22 26 29 26 27 23 19 17 12 9 10 11 12 10 12 6 7 4 4 1 3 3 5 6 9 10 10 8 13 16 14
8 7 7 6 7 7 8 5 3 5 9 10 17 18 16 15 21 26 25 27 28 28 30 23 20 19 15 11 11 10 7 9 6 7 4 2 3 2 0 1 3 6 9 10 10 13 19 18 20
6 9 8 5 4 3 1 2 6 5 8 13 15 17 15 15 22 25 21 24 27 30 31 21 17 11 13 13 9 7 6 6 6 7 1 1 1 1 3 7 9 10 13 14 14 20 21 21 21
10 6 7 5 8 5 4 4 7 5 9 10 11 13 13 16 24 23 24 19 23 23 32 31 9 3 8 14 9 9 6 5 3 3 5 6 2 4 6 10 13 15 17 19 21 21 22 25 25
3 5 5 6 9 6 8 7 6 10 10 10 11 9 10 11 20 29 24 21 21 29 32 34 23 16 10 11 11 12 8 4 1 2 5 3 5 4 7 9 14 18 21 24 25 23 24 25 22
2 5 6 6 10 5 4 2 9 10 9 8 8 9 9 9 10 26 25 18 20 29 31 27 14 20 12 13 12 11 5 3 1 6 9 8 7 6 8 15 19 20 21 21 21 21 24 27 29
5 4 5 8 3 4 3 3 4 6 6 6 7 2 3 10 11 21 23 28 28 20 24 27 25 18 21 9 12 7 6 10 14 11 13 10 9 9 11 20 27 19 21 21 21 22 23 26 27
5 5 10 5 5 2 2 5 8 14 11 11 10 15 16 17 23 32 36 42 38 33 29 24 20 14 12 9 12 11 10 9 13 13 9 6 7 9 13 26 17 12 13 18 21 23 26 28 24
5 7 6 4 3 3 2 2 8 10 9 15 11 15 15 15 17 26 34 38 33 30 29 26 23 22 18 17 16 12 8 7 4 5 8 12 16 19 15 12 13 14 15 19 20 21 23 21 22
10 6 5 4 7 5 2 2 8 7 12 16 16 11 10 14 15 15 25 31 31 28 25 23 20 18 16 11 6 4 5 6 10 13 17 19 12 11 11 12 14 15 15 17 19 20 23 22 19
5 6 5 6 4 2 4 1 4 12 13 15 14 16 15 14 13 15 19 24 24 22 20 17 12 10 7 7 6 7 7 9 12 14 9 9 11 12 15 16 18 19 21 20 18 18 15 15 11
2 0 3 3 4 3 7 5 2 13 12 9 8 11 11 10 11 10 20 20 17 14 12 12 8 7 6 6 4 1 6 5 4 7 8 10 15 19 17 18 22 22 21 21 20 17 13 12 9
5 4 5 4 2 2 6 5 2 4 9 6 8 9 8 9 9 16 21 16 10 7 6 6 8 11 10 9 4 7 6 7 9 7 9 13 18 16 18 17 16 16 15 11 10 11 10 10 9
6 6 3 3 4 3 6 7 2 7 7 8 10 9 9 9 8 8 12 15 11 5 1 1 5 6 9 7 4 6 8 8 9 11 14 15 14 15 14 17 18 18 18 17 16 13 11 10 10
5 4 4 2 1 4 8 5 1 9 9 10 9 9 8 8 7 7 7 6 4 5 8 6 6 6 10 10 10 10 12 14 14 15 13 9 8 11 17 17 18 17 17 16 17 20 22 21 23
5 5 2 5 1 3 2 4 4 9 7 8 7 7 8 9 8 6 18 23 19 15 14 13 11 12 12 11 11 13 15 12 15 10 4 8 12 16 19 19 23 24 19 20 23 24 24 20 18
6 2 5 4 2 2 3 3 3 3 4 5 5 6 3 6 9 11 18 19 19 20 18 17 15 16 14 14 16 14 14 10 6 6 9 12 14 18 20 18 20 21 21 20 21 22 20 20 20
4 3 4 2 4 3 1 3 3 10 7 7 8 11 11 9 8 8 13 17 17 16 15 16 18 18 13 15 14 12 13 6 6 8 7 9 13 15 13 16 18 18 17 18 20 21 22 21 18
1 4 5 4 3 1 4 4 4 8 9 9 10 8 7 7 7 9 15 17 17 17 23 21 18 15 9 15 13 13 11 12 14 10 9 8 6 8 8 12 16 17 19 20 20 15 8 14 18
Wind_Direction
282 276 312 304 51 124 280 302 116 56 51 58 62 77 91 70 109 115 125 120 128 127 127 119 116 112 107 105 105 104 102 102 99 89 80 72 61 54 50 49 45 37 32 27 20 21 19 14 9
263 294 222 276 118 27 293 89 61 88 134 81 77 88 64 68 74 104 107 121 121 123 124 121 116 113 111 107 106 103 100 97 92 86 77 68 59 56 53 51 50 45 42 36 32 29 25 20 15
249 271 71 165 173 208 202 102 104 116 86 102 81 45 73 95 63 96 118 124 124 120 125 125 121 116 113 110 105 103 101 99 92 90 82 75 66 57 55 53 52 48 44 37 32 29 23 18 15
72 12 344 45 257 297 117 107 103 58 40 89 110 60 55 93 88 117 126 122 118 120 122 124 123 122 118 113 112 110 107 103 100 89 75 76 70 65 61 57 52 51 45 37 31 24 15 7 5
210 88 330 314 308 287 112 135 107 65 49 97 92 104 92 97 120 122 126 116 117 122 125 125 128 124 120 117 112 110 108 102 97 87 86 80 74 66 62 61 54 48 43 31 26 16 6 359 356
12 85 15 300 288 145 85 112 93 71 43 96 98 102 116 121 114 117 119 111 119 127 129 127 123 119 116 115 116 115 110 102 94 89 87 84 71 69 62 65 46 32 30 21 13 8 1 355 351
128 105 230 297 267 97 75 51 45 148 107 100 129 120 135 120 125 125 118 115 121 126 126 124 115 113 108 112 111 107 104 99 94 89 90 94 84 79 66 36 27 20 21 13 7 10 1 352 352
137 132 340 264 301 51 76 61 86 75 52 138 139 131 147 150 138 129 127 133 129 126 121 116 113 117 105 102 101 99 98 99 101 96 105 112 101 88 51 22 21 31 22 17 24 10 9 6 10
165 242 249 244 249 163 82 85 56 66 71 51 27 127 145 135 130 133 140 142 141 138 136 129 137 132 113 89 96 106 107 110 112 103 105 125 109 90 17 349 350 16 3 14 11 1 354 352 348
146 156 255 146 126 123 150 104 102 92 96 78 85 103 126 133 142 152 162 154 141 145 143 136 127 140 129 110 111 123 125 134 128 111 81 105 96 353 2 334 338 5 343 346 355 353 340 332 331
216 177 69 13 104 132 115 107 137 126 155 151 139 135 137 147 161 167 174 162 158 157 150 147 138 143 154 142 142 153 154 143 141 135 109 83 59 109 76 39 7 357 355 336 334 333 333 325 323
110 86 91 24 45 83 115 142 123 164 204 161 147 149 148 155 172 186 191 179 173 169 149 156 154 149 146 137 161 169 153 147 157 136 116 123 96 74 89 8 6 341 337 328 326 330 334 324 314
102 95 75 72 59 76 83 137 196 148 133 143 134 144 156 167 188 196 201 190 181 167 162 167 154 154 161 145 147 143 139 145 140 144 162 134 119 49 48 16 357 342 338 331 318 321 317 301 298
128 107 124 162 88 53 103 207 116 172 133 126 139 159 169 175 187 197 205 189 187 168 164 145 137 152 149 156 149 147 129 114 141 167 205 60 98 335 328 347 351 348 337 330 322 322 315 310 306
123 122 156 169 163 170 184 313 199 180 136 149 152 171 178 185 187 186 199 180 189 150 150 129 90 208 161 163 160 163 162 145 168 224 287 299 308 315 346 358 352 342 330 321 316 314 312 310 306
181 118 142 231 173 193 124 253 221 160 141 174 178 188 184 198 188 187 190 186 169 160 151 141 152 209 189 167 154 149 140 151 292 18 209 160 65 47 52 9 348 335 330 323 314 313 313 313 318
283 232 173 192 176 148 149 288 166 170 163 192 198 200 211 198 174 173 172 173 158 161 159 160 192 183 185 158 163 139 168 167 283 105 95 79 50 52 20 7 347 328 321 328 340 341 339 333 328
253 256 183 132 174 117 264 53 100 159 168 196 233 219 193 59 51 67 76 72 79 144 141 141 147 169 169 184 156 157 125 87 80 83 67 71 53 26 356 341 334 324 326 323 325 336 337 340 336
359 27 112 102 84 68 293 119 95 64 50 64 71 68 74 69 62 62 63 85 96 109 122 130 152 183 209 181 113 90 88 83 91 81 65 33 344 319 317 330 341 346 336 333 326 331 334 333 336
334 39 36 91 90 102 7 121 104 80 71 65 74 84 85 80 71 63 60 67 88 99 104 102 97 89 97 90 80 74 77 57 13 333 347 358 339 337 351 357 2 358 348 334 333 334 330 326 330
52 66 19 19 338 336 31 52 99 84 83 70 61 65 75 91 85 75 68 69 78 82 82 77 79 83 90 77 70 44 348 336 336 330 326 338 11 28 27 7 360 355 350 339 333 331 323 319 326
66 15 360 331 15 257 106 50 129 111 91 80 75 69 64 74 78 82 80 72 69 71 78 79 73 71 59 24 30 33 15 354 326 336 4 4 36 19 8 354 352 347 340 338 337 328 321 317 331
146 327 275 309 305 356 314 80 216 107 88 89 85 88 85 87 93 92 92 88 79 68 61 59 71 29 345 333 356 323 314 344 2 355 63 16 4 1 356 355 348 339 333 326 321 323 327 325 331
275 279 250 240 162 36 300 114 299 94 134 112 103 93 94 100 110 118 112 110 111 99 65 52 55 35 14 319 300 319 328 44 62 31 6 359 357 355 357 349 350 354 349 357 360 351 338 331 326
19 31 5 4 22 214 309 64 31 59 95 115 106 94 97 97 99 112 129 144 147 133 160 55 18 8 12 34 54 69 67 55 47 16 359 2 8 7 8 358 357 359 352 345 342 348 357 357 347
318 79 121 63 57 282 333 87 104 92 91 99 121 141 128 117 104 95 89 115 119 31 360 37 4 18 28 63 77 61 40 17 357 2 349 7 27 22 2 0 351 345 350 349 341 338 337 330 319
353 45 193 109 343 48 128 95 83 124 121 125 135 135 161 149 136 129 60 68 54 43 42 43 44 60 40 38 29 12 2 4 352 338 23 34 13 4 351 343 338 340 338 327 322 323 318 317 324
110 210 45 3 86 318 5 112 203 158 115 51 89 63 81 85 64 67 72 69 57 48 55 39 38 28 23 19 6 5 357 2 28 28 17 2 355 354 351 341 334 332 330 329 325 323 327 323 315
12 24 36 86 112 147 355 308 73 76 84 71 68 69 79 72 68 73 61 58 43 43 35 16 355 345 340 343 347 325 326 321 318 312 319 332 336 338 327 329 331 335 335 332 328 322 323 321 328
346 82 91 107 319 52 143 273 95 85 56 54 66 72 80 82 84 75 51 35 34 23 12 356 350 339 317 312 311 309 298 283 281 268 295 302 321 325 346 340 335 336 333 333 328 342 19 350 348
Height
792 792 792 791 815 815 816 796 770 779 782 770 772 782 797 796 808 837 822 820 824 827 830 831 833 836 837 839 841 843 844 845 847 848 849 849 850 851 852 851 850 849 848 849 849 848 846 845 845
792 791 792 793 818 827 812 783 792 782 775 770 778 788 792 814 802 814 820 823 825 828 829 832 834 836 839 840 842 843 845 847 849 849 850 850 852 853 853 852 851 850 849 850 849 847 846 846 846
791 789 797 805 814 823 814 783 783 778 769 770 783 786 799 814 809 812 821 820 824 828 831 834 836 837 840 842 843 845 846 849 849 850 850 851 853 856 854 855 853 852 850 850 848 846 846 847 848
788 789 795 812 814 795 788 784 778 777 773 773 779 808 806 810 813 815 821 823 825 829 832 834 836 838 840 841 843 845 846 849 850 850 851 854 855 855 855 855 856 853 851 850 848 847 847 848 847
790 793 815 817 807 791 775 775 775 784 782 785 787 818 817 815 815 819 822 824 825 831 833 835 837 838 840 842 844 846 849 848 849 849 853 854 855 855 855 856 856 855 852 852 849 847 847 847 847
797 796 823 823 804 784 777 770 774 785 782 792 800 811 819 816 818 820 821 824 827 830 834 837 838 839 840 842 843 845 847 848 849 851 854 855 857 855 855 855 856 855 853 852 850 847 846 845 845
801 810 817 810 802 791 782 768 780 783 786 795 795 817 820 817 819 821 824 826 828 831 834 837 838 840 842 843 844 845 846 846 850 853 855 856 857 857 856 856 855 854 853 852 850 847 847 845 845
791 802 807 805 797 802 778 777 781 785 794 790 792 815 826 816 818 822 825 828 829 832 835 837 839 843 843 844 845 846 847 848 850 851 855 855 853 855 856 856 855 854 852 852 850 848 847 846 845
783 811 816 806 799 795 776 786 780 781 790 791 789 799 809 815 819 822 825 828 830 833 835 838 841 843 844 844 847 845 849 852 852 851 852 852 852 853 854 855 854 853 852 851 849 848 846 845 844
788 809 798 773 779 790 782 787 785 794 797 805 806 805 812 815 819 822 823 826 831 834 836 838 841 843 844 844 846 848 850 852 852 854 854 852 852 852 852 854 854 853 852 851 849 848 846 844 843
777 796 779 779 773 776 787 788 783 798 805 802 811 811 812 816 819 820 823 826 828 830 832 836 840 842 844 845 846 850 849 851 854 854 854 855 854 854 854 854 853 852 851 850 848 847 845 843 841
781 775 776 776 772 777 786 786 787 791 794 791 797 802 808 814 817 817 821 823 823 828 831 834 836 839 842 846 846 849 850 850 853 854 853 854 854 854 853 853 852 852 851 850 849 847 846 844 842
778 778 776 775 776 779 780 788 790 793 787 789 795 800 805 808 811 813 817 822 822 826 830 832 836 839 842 846 846 849 849 849 851 852 853 852 853 853 853 852 851 851 851 850 849 847 846 844 841
770 777 783 781 781 779 787 789 787 791 786 791 794 799 801 802 805 809 812 816 818 824 828 837 844 843 842 844 846 849 850 850 849 852 852 852 852 852 852 851 850 850 850 849 848 846 844 841 839
771 788 786 786 785 789 786 800 798 787 786 792 795 797 798 798 800 803 808 811 816 823 823 834 847 851 847 844 846 846 849 850 851 850 851 850 850 851 850 850 850 849 848 847 845 843 841 839 837
781 789 811 790 785 785 790 816 794 785 789 796 794 792 795 794 795 799 805 808 812 816 822 831 839 845 846 844 845 845 848 850 850 849 850 850 850 850 849 848 848 847 846 845 843 840 837 835 832
792 816 805 796 780 787 793 801 791 785 788 794 794 793 791 792 792 798 802 806 808 814 817 825 831 839 844 844 846 844 847 848 848 848 848 848 847 847 847 847 847 845 843 841 839 837 835 833 830
810 802 799 804 788 785 794 799 793 784 784 788 789 791 794 799 803 806 810 810 812 817 823 829 833 841 843 846 846 842 846 848 847 847 846 845 845 844 845 845 844 842 840 839 836 833 832 830 827
786 793 804 797 785 791 794 804 801 795 797 799 801 801 805 808 812 813 817 816 817 824 829 833 837 842 843 845 842 843 845 847 845 846 845 844 844 842 840 840 840 838 836 836 834 832 830 828 826
785 799 810 797 788 794 798 805 801 799 804 803 809 810 811 813 816 820 822 823 829 834 837 840 842 841 843 844 844 844 845 846 845 844 844 844 842 839 837 837 837 835 835 834 833 831 828 827 825
802 808 809 809 799 793 798 817 810 804 803 804 810 813 815 818 822 826 829 833 836 838 840 840 842 844 844 846 846 846 847 847 846 845 844 844 840 836 836 836 835 833 832 831 830 829 827 824 823
812 800 802 806 815 831 803 848 820 813 816 815 818 822 824 827 829 831 834 838 840 842 843 844 845 846 847 847 846 848 849 849 847 845 844 842 839 837 836 835 833 832 830 829 828 826 824 823 821
809 796 802 804 816 816 813 835 826 815 828 826 826 827 830 832 835 838 839 841 844 845 846 846 847 847 847 846 847 847 847 845 844 843 842 841 839 838 836 834 831 830 829 827 825 822 821 819 818
793 801 804 806 818 853 820 827 839 831 827 828 828 829 832 834 836 838 840 843 845 845 846 846 846 847 846 846 846 845 844 843 842 841 840 839 838 837 836 834 833 831 828 826 824 821 819 818 816
803 816 854 856 865 865 815 829 843 829 824 826 832 835 836 837 839 841 842 844 845 846 847 847 846 845 845 844 845 845 844 843 842 842 840 838 836 837 835 834 833 831 830 827 825 822 820 818 816
813 818 866 857 878 865 823 847 851 830 828 829 831 832 834 836 839 840 841 843 845 845 846 846 845 846 844 845 844 844 844 842 843 838 840 838 836 836 835 833 832 831 829 826 824 821 819 817 814
815 837 816 851 854 877 848 843 834 828 830 831 831 832 837 836 838 839 842 845 849 850 848 847 846 846 845 844 844 843 841 839 841 841 837 836 835 835 834 833 831 829 826 824 821 819 816 814 811
815 812 849 859 871 864 853 848 853 838 837 833 836 837 836 837 841 843 846 848 849 849 848 848 847 847 847 846 844 843 841 838 837 837 834 834 834 833 832 831 829 827 824 821 819 817 813 811 808
828 831 831 838 865 883 890 866 833 842 840 841 838 843 845 846 847 848 849 849 850 850 849 849 848 847 845 843 842 840 838 836 834 831 829 827 828 828 828 827 826 824 821 819 816 813 810 808 806
816 827 835 878 867 881 887 876 838 838 838 841 843 844 844 846 848 849 850 850 850 850 846 848 847 844 842 840 838 837 835 832 828 826 825 824 824 825 822 822 822 820 819 816 813 810 808 806 804